Tracking 20721 objects as of 2-Jun-2020
HD Live streaming from Space Station
objects crossing your sky now

METEOR 2-8 DEB

Track METEOR 2-8 DEB now!
10-day predictions


NORAD ID: 36329
Int'l Code: 1982-025P
Perigee: 831.9 km
Apogee: 861.0 km
Inclination: 82.5 °
Period: 101.7 minutes
Semi major axis: 7217 km
RCS: 0.0072 m2 (small)
Launch date: March 25, 1982
Source: Commonwealth of Independent States (former USSR) (CIS)
Launch site: PLESETSK MISSILE AND SPACE COMPLEX (PKMTR)

Note: This is SATELLITE DEBRIS
aabbcc
Your satellite tracking list
Your tracking list is empty




NASA's NSSDC Master Catalog

Two Line Element Set (TLE):
1 36329U 82025P   20146.90154090  .00001781  00000-0  89572-3 0  9992
2 36329  82.5101 217.6819 0020149  66.4909 293.8383 14.15884430764917
Source of the keplerian elements: AFSPC